Regional Weather Roundup
Issued by NWS

Home | Current Version | Previous Version | Text Only | Print | Product List | Glossary On
Versions: 1 2 3 4 5 6 7 8 9 10 11 12 13 14 15 16 17 18 19 20 21 22 23 24 25 26 27 28 29 30 31 32 33 34 35 36 37 38 39 40 41 42 43 44 45 46 47 48 49 50
000
ASMX46 KSGX 040011
RWRMX

MEXICAN WEATHER ROUNDUP
NATIONAL WEATHER SERVICE SAN DIEGO CA
500 PM PDT FRI JUL 03 2015

BAJA CALIFORNIA

CITY           SKY/WX    TMP DP  RH WIND       PRES   REMARKS
ENSENADA NW      N/A     68  32  26 W9        29.84F
LA PAZ         PTSUNNY   99  63  30 SW14      29.74F HX 100
LORETO         MOSUNNY   95  70  43 NE8       29.69F HX 101
MEXICALI       PTSUNNY  108  43  11 SE9       29.66F HX 102
S.J. DEL CABO  PTSUNNY   88  68  51 E21       29.76F
TIJUANA        MOSUNNY   73  57  56 W15       29.89S

NORTHWESTERN MEXICO

CITY           SKY/WX    TMP DP  RH WIND       PRES   REMARKS
CHIHUAHUA      PTSUNNY   90  54  29 NE12      29.95F
CULIACAN       PTSUNNY   88  70  55 S8        29.77F
GUAYMAS        MOSUNNY   95  73  49 SW12G23   29.62F HX 105
HERMOSILLO     PTSUNNY  106  57  20 S7        29.71F HX 105
JUAREZ         MOSUNNY   91  61  35 E17       29.91R
LOS MOCHIS     MOSUNNY   90  68  48 SW12      29.73F
OBREGON        MOSUNNY   97  70  41 SW9       29.67S HX 103

NORTHEASTERN MEXICO

CITY           SKY/WX    TMP DP  RH WIND       PRES   REMARKS
MATAMOROS      PTSUNNY   88  77  70 SE17      29.95S HX 100
MONCLOVA         N/A    N/A N/A N/A MISG        N/A
MONTERREY      PTSUNNY   90  64  43 E9        29.87S
NUEVO LAREDO   MOSUNNY   97  70  41 S12       29.83F HX 103
PIEDRAS NEGRAS PTSUNNY   93  72  49 SE7       29.87F HX 100
REYNOSA        MOSUNNY   86  66  51 SE17      29.89F
SALTILLO       PTSUNNY   77  64  65 NE17      30.06F
TORREON        MOSUNNY   93  55  27 NE7       29.90F
VICTORIA       PTSUNNY   82  68  61 E17       29.91R

WESTERN MEXICO

CITY           SKY/WX    TMP DP  RH WIND       PRES   REMARKS
AGUASCALIENTES PTSUNNY   66  50  55 NE10      30.14F
COLIMA         PTSUNNY   77  72  83 W6        29.92F
DURANGO        PTSUNNY   75  55  50 NE3       30.09F
GUADALAJARA    PTSUNNY   70  59  68 CALM      30.07F
MANZANILLO     PTSUNNY   86  77  74 W6        29.76  HX  97
MAZATLAN       MOSUNNY   86  72  62 S9        29.75F
PTO. VALLARTA  PTSUNNY   88  77  70 SW12      29.78R HX 100
TEPIC          PTSUNNY   81  68  65 S7        29.93F
URUAPAN        PTSUNNY   68  61  77 CALM      30.10R THUNDER
ZACATECAS      MOSUNNY   72  54  53 E12       30.17F

CENTRAL MEXICO

CITY           SKY/WX    TMP DP  RH WIND       PRES   REMARKS
CUERNAVACA     CLOUDY    75  64  69 SW6       30.05S
LEON           CLOUDY    70  57  64 E13       30.19R
MEXICO CITY    CLOUDY    63  54  72 N8        30.26R
MORELIA        PTSUNNY   72  59  64 E5        30.13S
POZA RICA      PTSUNNY   81  75  83 E7        29.94R
PUEBLA         PTSUNNY   64  52  63 S12       30.25R
QUERETARO      CLOUDY    63  57  82 NE6       30.23R
S. LUIS POTOSI PTSUNNY   70  52  52 E13       30.16S
TAMPICO        PTSUNNY   81  75  83 E8        29.90F
TOLUCA         CLOUDY    59  50  72 SE14      30.29S
VERACRUZ       CLOUDY    82  77  83 NW6       29.87S

SOUTHERN MEXICO

CITY           SKY/WX    TMP DP  RH WIND       PRES   REMARKS
ACAPULCO       PTSUNNY   88  73  62 W9        29.73S HX  96
B. DE HUATULCO MOSUNNY   84  68  58 CALM      29.81S
MINATITLAN     PTSUNNY   82  68  61 N12       29.81R
OAXACA         LGT RAIN  66  57  72 E15       30.13R
PTO. ESCONDIDO PTSUNNY   88  77  70 SW6       29.84S HX 100
TAPACHULA      MOCLDY    86  77  74 NE10      29.79R HX  97
TUX. GUTIERREZ CLOUDY    79  64  61 NW17      29.86R
VILLAHERMOSA   PTSUNNY   88  68  51 E10       29.85R
ZIHUATANEJO    PTSUNNY   86  73  66 CALM      29.79S

YUCATAN PENINSULA

CITY           SKY/WX    TMP DP  RH WIND       PRES   REMARKS
CAMPECHE       MOCLDY    93  70  46 SE14      29.85S HX  99
CANCUN         MOCLDY    84  79  84 E5        29.98S HX  96
CHETUMAL       MOCLDY    86  77  74 SE14      29.93R HX  97
C. DEL CARMEN  CLOUDY    91  72  52 SE22      29.86R HX  98
COZUMEL        PTCLDY    81  75  83 CALM      29.98R
MERIDA         CLOUDY    84  77  79 E5        29.94R

$$




USA.gov is the U.S. government's official web portal to all federal, state and local government web resources and services.